Home   Weather   Lexington   Past weeks

Flag for USA Past Weather in Lexington, North Carolina, USA — Yesterday and Last 2 Weeks

Now
82 °F

Light rain. Overcast.


Feels Like: 86 °F
Forecast: 69 / 88 °F
Wind: 9 mph from Northeast

Location: Davidson County Airport

Current Time: Aug 31, 2016 at 7:47:20 PM

Latest Report: Aug 31, 2016 at 7:00 PM


Visibility: 10 mi

Pressure: 29.92 "Hg

Humidity: 65%

Dew Point: 69 °F

Location of LexingtonLocation

Past Weather in Lexington — Graph

°F

Lexington Temperature Yesterday

Maximum temperature yesterday: 89 °F (at 3:40 PM)
Minimum temperature yesterday: 65 °F (at 5:40 AM)
Average temperature yesterday: 76 °F

High & Low Weather Summary for the Past Weeks

 TemperatureHumidityPressure
High94 °F (Aug 26, 4:20 PM)100% (Aug 18, 3:20 AM)30.33 "Hg (Aug 18, 3:20 AM)
Low62 °F (Aug 23, 3:40 AM)39% (Aug 29, 4:20 PM)29.84 "Hg (Aug 21, 3:00 AM)
Average77 °F79%30.11 "Hg
* Reported Aug 16 6:00 PM — Aug 31 6:40 PM, Lexington, Weather by CustomWeather, © 2016

Note: Actual official high and low records may vary slightly from our data, if they occured in-between our weather recording intervals... More about our weather records

Advertising

Lexington Weather History for the Previous 24 Hours

Scroll right to see more
 ConditionsComfort  
Time TempWeatherWind HumidityBarometerVisibility
6:40 PM
Wed, Aug 31
87 °FCloudy.7 mph56%29.91 "Hg10 mi
6:20 PM89 °FMostly cloudy.8 mph54%29.91 "Hg10 mi
6:00 PM89 °FMostly cloudy.5 mph54%29.90 "Hg10 mi
5:40 PM87 °FPartly sunny.5 mph56%29.91 "Hg10 mi
5:15 PM89 °FScattered clouds.No wind49%29.90 "Hg10 mi
5:00 PM85 °FScattered clouds.No wind64%29.91 "Hg10 mi
4:40 PM84 °FBroken clouds.No wind69%29.91 "Hg10 mi
4:20 PM85 °FBroken clouds.No wind58%29.91 "Hg10 mi
4:00 PM85 °FPartly sunny.No wind66%29.92 "Hg10 mi
3:40 PM85 °FScattered clouds.No wind65%29.93 "Hg10 mi
3:20 PM88 °FScattered clouds.5 mph52%29.93 "Hg10 mi
3:00 PM88 °FBroken clouds.No wind50%29.94 "Hg10 mi
2:40 PM88 °FPartly sunny.No wind52%29.96 "Hg10 mi
2:00 PM91 °FPartly sunny.3 mph46%29.96 "Hg10 mi
1:20 PM89 °FScattered clouds.3 mph49%29.98 "Hg10 mi
1:00 PM89 °FScattered clouds.5 mph49%29.99 "Hg10 mi
12:40 PM88 °FScattered clouds.3 mph50%30.00 "Hg10 mi
12:20 PM87 °FPartly sunny.3 mph52%30.01 "Hg10 mi
12:00 PM84 °FScattered clouds.No wind58%30.02 "Hg10 mi
11:40 AM85 °FSunny.No wind57%30.02 "Hg10 mi
11:20 AM86 °FSunny.No wind56%30.03 "Hg10 mi
11:00 AM85 °FSunny.3 mph57%30.03 "Hg10 mi
10:20 AM83 °FSunny.No wind59%30.03 "Hg10 mi
10:00 AM82 °FSunny.No wind65%30.03 "Hg10 mi
9:40 AM80 °FSunny.No wind69%30.03 "Hg10 mi
9:20 AM79 °FSunny.No wind74%30.03 "Hg10 mi
9:00 AM78 °FSunny.No wind78%30.03 "Hg10 mi
8:40 AM75 °FSunny.No wind87%30.03 "Hg10 mi
8:20 AM72 °FSunny.No wind93%30.03 "Hg10 mi
8:00 AM71 °FSunny.No wind98%30.03 "Hg7 mi
7:40 AM69 °FFog.No wind100%30.03 "Hg4 mi
7:20 AM68 °FFog.No wind100%30.03 "Hg3 mi
7:00 AM68 °FFog.No wind100%30.03 "Hg3 mi
6:40 AM68 °FFog.No wind100%30.03 "Hg3 mi
6:20 AM68 °FFog.No wind100%30.03 "Hg3 mi
6:00 AM68 °FFog.No wind100%30.03 "Hg3 mi
5:40 AM68 °FFog.No wind100%30.03 "Hg3 mi
5:20 AM68 °FFog.No wind100%30.03 "Hg2 mi
5:00 AM69 °FFog.No wind100%30.03 "Hg4 mi
4:40 AM69 °FFog.No wind100%30.03 "Hg3 mi
4:20 AM69 °FFog.No wind100%30.04 "Hg4 mi
4:00 AM69 °FFog.No wind100%30.04 "Hg4 mi
3:40 AM69 °FFog.No wind100%30.05 "Hg4 mi
3:20 AM69 °FFog.No wind100%30.06 "Hg5 mi
3:00 AM70 °FFog.No wind100%30.05 "Hg4 mi
2:40 AM69 °FFog.No wind100%30.05 "Hg3 mi
2:20 AM70 °FFog.No wind100%30.05 "Hg4 mi
2:00 AM70 °FFog.No wind100%30.05 "Hg4 mi
1:40 AM70 °FFog.No wind99%30.05 "Hg4 mi
1:20 AM71 °FFog.No wind99%30.05 "Hg5 mi
1:00 AM71 °FFog.No wind100%30.05 "Hg5 mi
12:40 AM71 °FFog.No wind99%30.05 "Hg5 mi
12:20 AM71 °FFog.No wind99%30.05 "Hg5 mi
12:00 AM71 °FClear.No wind99%30.06 "Hg7 mi
11:40 PM
Tue, Aug 30
72 °FClear.No wind99%30.06 "Hg7 mi
11:00 PM72 °FClear.No wind98%30.05 "Hg7 mi
10:40 PM73 °FPassing clouds.No wind96%30.05 "Hg10 mi
10:20 PM73 °FClear.No wind94%30.05 "Hg10 mi
10:00 PM73 °FClear.No wind92%30.04 "Hg10 mi
9:40 PM74 °FClear.No wind89%30.04 "Hg10 mi
9:20 PM74 °FClear.No wind88%30.03 "Hg10 mi
9:00 PM75 °FClear.No wind85%30.03 "Hg10 mi
8:20 PM77 °FSunny.No wind77%30.03 "Hg10 mi
8:00 PM78 °FSunny.No wind76%30.02 "Hg10 mi
7:40 PM79 °FSunny.No wind75%30.02 "Hg10 mi
7:20 PM80 °FSunny.No wind72%30.02 "Hg10 mi
7:00 PM83 °FSunny.No wind64%30.02 "Hg10 mi
Weather by CustomWeather, © 2016

See weather overviewHow to use our weather pages